Wetterdaten: Sonntag, 28.09.2014
Datum Zeit Temp. A. Feuchte A. Luftdruck Regen Wind Richtung Richtung Sonnenschein ET UV Solar Taupunkt Windchill Windben Empfang
28.09.2014 00:00 9,6 C 90 % 1028,1 hPa 0,0 l/m 0,0 km/h (0 Bft) S 175 0 min 0,000 mm 0,0 UV-I 0 W/m 8,0 C 9,6 C 0,0 km/h (0 Bft) 0,00 %
28.09.2014 00:15 9,6 C 90 % 1027,9 hPa 0,0 l/m 0,0 km/h (0 Bft) S 174 0 min 0,000 mm 0,0 UV-I 0 W/m 8,0 C 9,6 C 0,0 km/h (0 Bft) 0,00 %
28.09.2014 00:30 9,6 C 90 % 1028,0 hPa 0,0 l/m 0,0 km/h (0 Bft) S 175 0 min 0,000 mm 0,0 UV-I 0 W/m 8,0 C 9,6 C 0,0 km/h (0 Bft) 0,00 %
28.09.2014 00:45 9,1 C 91 % 1028,2 hPa 0,0 l/m 0,0 km/h (0 Bft) S-SO 147 0 min 0,000 mm 0,0 UV-I 0 W/m 7,7 C 9,1 C 0,0 km/h (0 Bft) 0,00 %
28.09.2014 01:00 10,1 C 90 % 1028,1 hPa 0,0 l/m 0,0 km/h (0 Bft) O-SO 122 0 min 0,000 mm 0,0 UV-I 0 W/m 8,5 C 10,1 C 0,0 km/h (0 Bft) 0,00 %
28.09.2014 01:15 9,7 C 90 % 1028,1 hPa 0,0 l/m 0,0 km/h (0 Bft) NO 52 0 min 0,000 mm 0,0 UV-I 0 W/m 8,1 C 9,7 C 0,0 km/h (0 Bft) 0,00 %
28.09.2014 01:30 9,4 C 91 % 1028,3 hPa 0,0 l/m 0,0 km/h (0 Bft) SO 139 0 min 0,000 mm 0,0 UV-I 0 W/m 8,0 C 9,4 C 0,0 km/h (0 Bft) 0,00 %
28.09.2014 01:45 9,4 C 91 % 1028,4 hPa 0,0 l/m 0,0 km/h (0 Bft) SO 145 0 min 0,000 mm 0,0 UV-I 0 W/m 8,0 C 9,4 C 0,0 km/h (0 Bft) 0,00 %
28.09.2014 02:00 9,4 C 91 % 1028,2 hPa 0,0 l/m 0,0 km/h (0 Bft) S 173 0 min 0,000 mm 0,0 UV-I 0 W/m 8,0 C 9,4 C 0,0 km/h (0 Bft) 0,00 %
28.09.2014 02:15 9,4 C 90 % 1028,2 hPa 0,0 l/m 0,0 km/h (0 Bft) S 173 0 min 0,000 mm 0,0 UV-I 0 W/m 7,8 C 9,4 C 0,0 km/h (0 Bft) 0,00 %
28.09.2014 02:30 9,5 C 90 % 1027,9 hPa 0,0 l/m 0,0 km/h (0 Bft) S 172 0 min 0,000 mm 0,0 UV-I 0 W/m 7,9 C 9,5 C 0,0 km/h (0 Bft) 0,00 %
28.09.2014 02:45 9,4 C 91 % 1028,0 hPa 0,0 l/m 0,0 km/h (0 Bft) O-SO 113 0 min 0,000 mm 0,0 UV-I 0 W/m 8,0 C 9,4 C 0,0 km/h (0 Bft) 0,00 %
28.09.2014 03:00 9,4 C 91 % 1027,8 hPa 0,0 l/m 0,0 km/h (0 Bft) S 173 0 min 0,000 mm 0,0 UV-I 0 W/m 8,0 C 9,4 C 0,0 km/h (0 Bft) 0,00 %
28.09.2014 03:15 9,4 C 91 % 1027,9 hPa 0,0 l/m 0,0 km/h (0 Bft) S 176 0 min 0,000 mm 0,0 UV-I 0 W/m 8,0 C 9,4 C 0,0 km/h (0 Bft) 0,00 %
28.09.2014 03:30 9,4 C 90 % 1028,0 hPa 0,0 l/m 0,0 km/h (0 Bft) S 174 0 min 0,000 mm 0,0 UV-I 0 W/m 7,8 C 9,4 C 0,0 km/h (0 Bft) 0,00 %
28.09.2014 03:45 9,4 C 90 % 1027,9 hPa 0,0 l/m 0,0 km/h (0 Bft) O-SO 103 0 min 0,000 mm 0,0 UV-I 0 W/m 7,8 C 9,4 C 0,0 km/h (0 Bft) 0,00 %
28.09.2014 04:00 9,7 C 90 % 1027,7 hPa 0,0 l/m 0,0 km/h (0 Bft) W-SW 255 0 min 0,000 mm 0,0 UV-I 0 W/m 8,1 C 9,7 C 0,0 km/h (0 Bft) 0,00 %
28.09.2014 04:15 9,7 C 90 % 1027,6 hPa 0,0 l/m 0,0 km/h (0 Bft) O 92 0 min 0,000 mm 0,0 UV-I 0 W/m 8,1 C 9,7 C 0,0 km/h (0 Bft) 0,00 %
28.09.2014 04:30 9,7 C 90 % 1027,6 hPa 0,0 l/m 0,0 km/h (0 Bft) W 266 0 min 0,000 mm 0,0 UV-I 0 W/m 8,1 C 9,7 C 0,0 km/h (0 Bft) 0,00 %
28.09.2014 04:45 9,6 C 90 % 1027,5 hPa 0,0 l/m 2,2 km/h (1 Bft) O 87 0 min 0,000 mm 0,0 UV-I 0 W/m 8,0 C 9,6 C 4,0 km/h (1 Bft) 0,00 %
28.09.2014 05:00 9,6 C 90 % 1027,5 hPa 0,0 l/m 1,8 km/h (1 Bft) O-SO 115 0 min 0,000 mm 0,0 UV-I 0 W/m 8,0 C 9,6 C 4,0 km/h (1 Bft) 0,00 %
28.09.2014 05:15 9,5 C 90 % 1027,4 hPa 0,0 l/m 2,2 km/h (1 Bft) O-SO 113 0 min 0,000 mm 0,0 UV-I 0 W/m 7,9 C 9,5 C 4,0 km/h (1 Bft) 0,00 %
28.09.2014 05:30 9,4 C 91 % 1027,5 hPa 0,0 l/m 0,0 km/h (0 Bft) O-SO 114 0 min 0,000 mm 0,0 UV-I 0 W/m 8,0 C 9,4 C 0,0 km/h (0 Bft) 0,00 %
28.09.2014 05:45 9,2 C 91 % 1027,3 hPa 0,0 l/m 0,0 km/h (0 Bft) O-SO 120 0 min 0,000 mm 0,0 UV-I 0 W/m 7,8 C 9,2 C 0,0 km/h (0 Bft) 0,00 %
28.09.2014 06:00 9,1 C 91 % 1027,5 hPa 0,0 l/m 0,0 km/h (0 Bft) O-NO 70 0 min 0,000 mm 0,0 UV-I 0 W/m 7,7 C 9,1 C 0,0 km/h (0 Bft) 0,00 %
28.09.2014 06:15 8,9 C 91 % 1027,2 hPa 0,0 l/m 0,4 km/h (0 Bft) SO 137 0 min 0,000 mm 0,0 UV-I 0 W/m 7,5 C 8,9 C 4,0 km/h (1 Bft) 0,00 %
28.09.2014 06:30 8,7 C 91 % 1027,3 hPa 0,0 l/m 0,4 km/h (0 Bft) O-SO 118 0 min 0,000 mm 0,0 UV-I 0 W/m 7,3 C 8,7 C 4,0 km/h (1 Bft) 0,00 %
28.09.2014 06:45 8,6 C 91 % 1027,2 hPa 0,0 l/m 0,4 km/h (0 Bft) O-SO 109 0 min 0,000 mm 0,0 UV-I 0 W/m 7,2 C 8,6 C 4,0 km/h (1 Bft) 0,00 %
28.09.2014 07:00 8,4 C 92 % 1027,4 hPa 0,0 l/m 0,0 km/h (0 Bft) S-SO 163 0 min 0,000 mm 1,0 UV-I 0 W/m 7,2 C 8,4 C 0,0 km/h (0 Bft) 0,00 %
28.09.2014 07:15 8,4 C 91 % 1027,3 hPa 0,0 l/m 0,0 km/h (0 Bft) O-SO 121 0 min 0,000 mm 1,0 UV-I 4 W/m 7,0 C 8,4 C 0,0 km/h (0 Bft) 0,00 %
28.09.2014 07:30 8,4 C 91 % 1027,6 hPa 0,0 l/m 0,0 km/h (0 Bft) SO 131 0 min 0,000 mm 1,0 UV-I 24 W/m 7,0 C 8,4 C 0,0 km/h (0 Bft) 0,00 %
28.09.2014 07:45 8,5 C 92 % 1027,4 hPa 0,0 l/m 0,0 km/h (0 Bft) O-SO 113 0 min 0,000 mm 1,0 UV-I 38 W/m 7,3 C 8,5 C 0,0 km/h (0 Bft) 0,00 %
28.09.2014 08:00 8,3 C 92 % 1027,4 hPa 0,0 l/m 1,4 km/h (1 Bft) O-SO 106 0 min 0,000 mm 2,0 UV-I 62 W/m 7,1 C 8,3 C 4,0 km/h (1 Bft) 0,00 %
28.09.2014 08:15 8,7 C 91 % 1027,4 hPa 0,0 l/m 0,4 km/h (0 Bft) SO 124 0 min 0,000 mm 2,0 UV-I 70 W/m 7,3 C 8,7 C 4,0 km/h (1 Bft) 0,00 %
28.09.2014 08:30 8,8 C 91 % 1027,2 hPa 0,0 l/m 0,0 km/h (0 Bft) N 352 0 min 0,000 mm 2,0 UV-I 77 W/m 7,4 C 8,8 C 0,0 km/h (0 Bft) 0,00 %
28.09.2014 08:45 8,8 C 91 % 1027,3 hPa 0,0 l/m 0,4 km/h (0 Bft) O 84 0 min 0,000 mm 2,0 UV-I 114 W/m 7,4 C 8,8 C 4,0 km/h (1 Bft) 0,00 %
28.09.2014 09:00 9,1 C 91 % 1027,3 hPa 0,0 l/m 0,0 km/h (0 Bft) SO 127 0 min 0,000 mm 2,0 UV-I 127 W/m 7,7 C 9,1 C 0,0 km/h (0 Bft) 0,00 %
28.09.2014 09:15 9,2 C 90 % 1027,2 hPa 0,0 l/m 0,0 km/h (0 Bft) SO 125 0 min 0,000 mm 2,0 UV-I 143 W/m 7,6 C 9,2 C 0,0 km/h (0 Bft) 0,00 %
28.09.2014 09:30 9,4 C 90 % 1026,9 hPa 0,0 l/m 1,8 km/h (1 Bft) SO 125 0 min 0,000 mm 3,0 UV-I 150 W/m 7,8 C 9,4 C 4,0 km/h (1 Bft) 0,00 %
28.09.2014 09:45 10,3 C 90 % 1027,0 hPa 0,0 l/m 2,9 km/h (1 Bft) O-SO 105 0 min 0,000 mm 3,0 UV-I 180 W/m 8,7 C 10,3 C 4,0 km/h (1 Bft) 0,00 %
28.09.2014 10:00 10,6 C 89 % 1026,7 hPa 0,0 l/m 0,7 km/h (0 Bft) N 353 15 min 0,000 mm 3,0 UV-I 255 W/m 8,9 C 10,6 C 4,0 km/h (1 Bft) 0,00 %
28.09.2014 10:15 11,0 C 87 % 1026,5 hPa 0,0 l/m 4,7 km/h (1 Bft) O-SO 102 0 min 0,000 mm 4,0 UV-I 162 W/m 8,9 C 11,0 C 7,9 km/h (2 Bft) 0,00 %
28.09.2014 10:30 12,5 C 80 % 1026,2 hPa 0,0 l/m 0,4 km/h (0 Bft) O-SO 123 0 min 0,000 mm 4,0 UV-I 236 W/m 9,1 C 12,5 C 4,0 km/h (1 Bft) 0,00 %
28.09.2014 10:45 13,5 C 75 % 1025,8 hPa 0,0 l/m 3,2 km/h (1 Bft) O 81 0 min 0,000 mm 4,0 UV-I 291 W/m 9,2 C 13,5 C 4,0 km/h (1 Bft) 0,00 %
28.09.2014 11:00 13,6 C 75 % 1025,7 hPa 0,0 l/m 0,7 km/h (0 Bft) O-NO 57 0 min 0,000 mm 4,0 UV-I 270 W/m 9,3 C 13,6 C 4,0 km/h (1 Bft) 0,00 %
28.09.2014 11:15 14,2 C 73 % 1025,3 hPa 0,0 l/m 7,9 km/h (2 Bft) O 94 0 min 0,000 mm 4,0 UV-I 286 W/m 9,4 C 13,3 C 11,9 km/h (2 Bft) 0,00 %
28.09.2014 11:30 14,4 C 71 % 1025,4 hPa 0,0 l/m 6,8 km/h (2 Bft) O 89 0 min 0,000 mm 4,0 UV-I 312 W/m 9,2 C 14,2 C 11,9 km/h (2 Bft) 0,00 %
28.09.2014 11:45 14,8 C 71 % 1025,0 hPa 0,0 l/m 0,0 km/h (0 Bft) S-SW 196 15 min 0,000 mm 4,0 UV-I 352 W/m 9,6 C 14,8 C 0,0 km/h (0 Bft) 0,00 %
28.09.2014 12:00 15,2 C 71 % 1024,9 hPa 0,0 l/m 5,8 km/h (2 Bft) O 88 15 min 0,000 mm 4,0 UV-I 398 W/m 10,0 C 15,2 C 7,9 km/h (2 Bft) 0,00 %
28.09.2014 12:15 16,3 C 67 % 1024,6 hPa 0,0 l/m 1,4 km/h (1 Bft) O 85 0 min 0,000 mm 4,0 UV-I 148 W/m 10,2 C 16,3 C 4,0 km/h (1 Bft) 0,00 %
28.09.2014 12:30 16,5 C 66 % 1024,3 hPa 0,0 l/m 2,2 km/h (1 Bft) SO 136 15 min 0,000 mm 2,0 UV-I 499 W/m 10,1 C 16,5 C 4,0 km/h (1 Bft) 0,00 %
28.09.2014 12:45 16,9 C 66 % 1024,0 hPa 0,0 l/m 4,7 km/h (1 Bft) O 92 15 min 0,000 mm 2,0 UV-I 465 W/m 10,5 C 16,9 C 7,9 km/h (2 Bft) 0,00 %
28.09.2014 13:00 17,2 C 62 % 1023,8 hPa 0,0 l/m 5,4 km/h (1 Bft) O-NO 70 15 min 0,000 mm 2,0 UV-I 551 W/m 9,9 C 17,2 C 7,9 km/h (2 Bft) 0,00 %
28.09.2014 13:15 17,3 C 63 % 1023,7 hPa 0,0 l/m 6,8 km/h (2 Bft) O-SO 112 15 min 0,000 mm 2,0 UV-I 550 W/m 10,2 C 17,1 C 7,9 km/h (2 Bft) 0,00 %
28.09.2014 13:30 17,6 C 62 % 1023,5 hPa 0,0 l/m 1,8 km/h (1 Bft) O-NO 61 15 min 0,000 mm 2,0 UV-I 540 W/m 10,2 C 17,6 C 4,0 km/h (1 Bft) 0,00 %
28.09.2014 13:45 17,6 C 62 % 1023,4 hPa 0,0 l/m 0,7 km/h (0 Bft) O-NO 72 15 min 0,000 mm 2,0 UV-I 540 W/m 10,2 C 17,6 C 4,0 km/h (1 Bft) 0,00 %
28.09.2014 14:00 18,0 C 62 % 1023,2 hPa 0,0 l/m 5,4 km/h (1 Bft) O 90 15 min 0,000 mm 2,0 UV-I 535 W/m 10,6 C 18,0 C 7,9 km/h (2 Bft) 0,00 %
28.09.2014 14:15 18,1 C 61 % 1023,0 hPa 0,0 l/m 0,4 km/h (0 Bft) O-SO 115 15 min 0,000 mm 2,0 UV-I 535 W/m 10,5 C 18,1 C 4,0 km/h (1 Bft) 0,00 %
28.09.2014 14:30 18,2 C 62 % 1022,9 hPa 0,0 l/m 4,0 km/h (1 Bft) O-SO 112 15 min 0,000 mm 2,0 UV-I 530 W/m 10,8 C 18,2 C 7,9 km/h (2 Bft) 0,00 %
28.09.2014 14:45 18,5 C 59 % 1022,6 hPa 0,0 l/m 1,8 km/h (1 Bft) S 183 15 min 0,000 mm 2,0 UV-I 545 W/m 10,3 C 18,5 C 7,9 km/h (2 Bft) 0,00 %
28.09.2014 15:00 18,7 C 59 % 1022,7 hPa 0,0 l/m 2,2 km/h (1 Bft) S 174 15 min 0,000 mm 2,0 UV-I 540 W/m 10,5 C 18,7 C 4,0 km/h (1 Bft) 0,00 %
28.09.2014 15:15 18,8 C 57 % 1022,5 hPa 0,0 l/m 3,2 km/h (1 Bft) O-SO 108 15 min 0,000 mm 2,0 UV-I 530 W/m 10,1 C 18,8 C 4,0 km/h (1 Bft) 0,00 %
28.09.2014 15:30 18,9 C 57 % 1022,4 hPa 0,0 l/m 4,3 km/h (1 Bft) O-SO 108 15 min 0,000 mm 2,0 UV-I 525 W/m 10,2 C 18,9 C 7,9 km/h (2 Bft) 0,00 %
28.09.2014 15:45 18,9 C 57 % 1022,3 hPa 0,0 l/m 1,8 km/h (1 Bft) O-SO 108 15 min 0,000 mm 1,0 UV-I 525 W/m 10,2 C 18,9 C 4,0 km/h (1 Bft) 0,00 %
28.09.2014 16:00 19,1 C 57 % 1022,1 hPa 0,0 l/m 3,2 km/h (1 Bft) O 84 15 min 0,000 mm 1,0 UV-I 520 W/m 10,4 C 19,1 C 4,0 km/h (1 Bft) 0,00 %
28.09.2014 16:15 19,2 C 55 % 1021,9 hPa 0,0 l/m 6,5 km/h (2 Bft) O 85 15 min 0,000 mm 1,0 UV-I 515 W/m 9,9 C 19,2 C 7,9 km/h (2 Bft) 0,00 %
28.09.2014 16:30 19,2 C 55 % 1021,7 hPa 0,0 l/m 0,7 km/h (0 Bft) S 180 15 min 0,000 mm 1,0 UV-I 510 W/m 9,9 C 19,2 C 4,0 km/h (1 Bft) 0,00 %
28.09.2014 16:45 19,9 C 54 % 1021,7 hPa 0,0 l/m 0,4 km/h (0 Bft) O-NO 78 15 min 0,000 mm 1,0 UV-I 510 W/m 10,3 C 19,9 C 4,0 km/h (1 Bft) 0,00 %
28.09.2014 17:00 19,7 C 56 % 1021,8 hPa 0,0 l/m 0,4 km/h (0 Bft) O-SO 114 15 min 0,000 mm 1,0 UV-I 500 W/m 10,7 C 19,7 C 4,0 km/h (1 Bft) 0,00 %
28.09.2014 17:15 19,4 C 60 % 1022,2 hPa 0,0 l/m 5,8 km/h (2 Bft) O-SO 117 15 min 0,000 mm 0,0 UV-I 415 W/m 11,4 C 19,4 C 11,9 km/h (2 Bft) 0,00 %
28.09.2014 17:30 18,9 C 61 % 1022,4 hPa 0,0 l/m 0,0 km/h (0 Bft) S-SO 161 15 min 0,000 mm 0,0 UV-I 254 W/m 11,2 C 18,9 C 0,0 km/h (0 Bft) 0,00 %
28.09.2014 17:45 18,4 C 64 % 1022,5 hPa 0,0 l/m 1,8 km/h (1 Bft) SO 140 15 min 0,000 mm 0,0 UV-I 257 W/m 11,5 C 18,4 C 4,0 km/h (1 Bft) 0,00 %
28.09.2014 18:00 17,8 C 66 % 1022,4 hPa 0,0 l/m 4,7 km/h (1 Bft) S 175 15 min 0,000 mm 0,0 UV-I 183 W/m 11,4 C 17,8 C 7,9 km/h (2 Bft) 0,00 %
28.09.2014 18:15 17,2 C 68 % 1022,6 hPa 0,0 l/m 8,3 km/h (2 Bft) O 94 15 min 0,000 mm 0,0 UV-I 145 W/m 11,2 C 16,3 C 11,9 km/h (2 Bft) 0,00 %
28.09.2014 18:30 16,5 C 71 % 1022,5 hPa 0,0 l/m 0,0 km/h (0 Bft) O 89 15 min 0,000 mm 0,0 UV-I 65 W/m 11,2 C 16,5 C 0,0 km/h (0 Bft) 0,00 %
28.09.2014 18:45 16,1 C 72 % 1022,6 hPa 0,0 l/m 0,7 km/h (0 Bft) S 174 0 min 0,000 mm 0,0 UV-I 4 W/m 11,0 C 16,1 C 4,0 km/h (1 Bft) 0,00 %
28.09.2014 19:00 15,7 C 73 % 1022,7 hPa 0,0 l/m 0,7 km/h (0 Bft) O 87 0 min 0,000 mm 0,0 UV-I 0 W/m 10,9 C 15,7 C 4,0 km/h (1 Bft) 0,00 %
28.09.2014 19:15 15,2 C 77 % 1022,7 hPa 0,0 l/m 0,4 km/h (0 Bft) O-SO 115 0 min 0,000 mm 0,0 UV-I 0 W/m 11,2 C 15,2 C 4,0 km/h (1 Bft) 0,00 %
28.09.2014 19:30 14,7 C 79 % 1022,9 hPa 0,0 l/m 0,0 km/h (0 Bft) S 176 0 min 0,000 mm 0,0 UV-I 0 W/m 11,1 C 14,7 C 0,0 km/h (0 Bft) 0,00 %
28.09.2014 19:45 14,5 C 80 % 1023,2 hPa 0,0 l/m 1,8 km/h (1 Bft) O 84 0 min 0,000 mm 0,0 UV-I 0 W/m 11,1 C 14,5 C 4,0 km/h (1 Bft) 0,00 %
28.09.2014 20:00 14,8 C 77 % 1023,0 hPa 0,0 l/m 3,2 km/h (1 Bft) O 101 0 min 0,000 mm 0,0 UV-I 0 W/m 10,8 C 14,8 C 4,0 km/h (1 Bft) 0,00 %
28.09.2014 20:15 14,8 C 76 % 1022,9 hPa 0,0 l/m 0,4 km/h (0 Bft) O 80 0 min 0,000 mm 0,0 UV-I 0 W/m 10,6 C 14,8 C 4,0 km/h (1 Bft) 0,00 %
28.09.2014 20:30 14,7 C 76 % 1023,0 hPa 0,0 l/m 7,2 km/h (2 Bft) O-NO 72 0 min 0,000 mm 0,0 UV-I 0 W/m 10,5 C 14,2 C 7,9 km/h (2 Bft) 0,00 %
28.09.2014 20:45 14,7 C 76 % 1023,2 hPa 0,0 l/m 4,0 km/h (1 Bft) O 92 0 min 0,000 mm 0,0 UV-I 0 W/m 10,5 C 14,7 C 7,9 km/h (2 Bft) 0,00 %
28.09.2014 21:00 14,6 C 77 % 1023,0 hPa 0,0 l/m 0,0 km/h (0 Bft) W-NW 283 0 min 0,000 mm 0,0 UV-I 0 W/m 10,6 C 14,6 C 0,0 km/h (0 Bft) 0,00 %
28.09.2014 21:15 14,4 C 79 % 1023,1 hPa 0,0 l/m 1,4 km/h (1 Bft) O-SO 104 0 min 0,000 mm 0,0 UV-I 0 W/m 10,8 C 14,4 C 4,0 km/h (1 Bft) 0,00 %
28.09.2014 21:30 14,2 C 79 % 1023,2 hPa 0,0 l/m 5,8 km/h (2 Bft) O-SO 123 0 min 0,000 mm 0,0 UV-I 0 W/m 10,6 C 14,2 C 7,9 km/h (2 Bft) 0,00 %
28.09.2014 21:45 14,1 C 80 % 1023,3 hPa 0,0 l/m 5,8 km/h (2 Bft) O 100 0 min 0,000 mm 0,0 UV-I 0 W/m 10,7 C 14,1 C 11,9 km/h (2 Bft) 0,00 %
28.09.2014 22:00 14,0 C 80 % 1023,3 hPa 0,0 l/m 4,0 km/h (1 Bft) O-SO 119 0 min 0,000 mm 0,0 UV-I 0 W/m 10,6 C 14,0 C 7,9 km/h (2 Bft) 0,00 %
28.09.2014 22:15 13,7 C 81 % 1023,3 hPa 0,0 l/m 0,0 km/h (0 Bft) O-NO 62 0 min 0,000 mm 0,0 UV-I 0 W/m 10,5 C 13,7 C 0,0 km/h (0 Bft) 0,00 %
28.09.2014 22:30 13,3 C 82 % 1023,3 hPa 0,0 l/m 0,0 km/h (0 Bft) O-SO 123 0 min 0,000 mm 0,0 UV-I 0 W/m 10,3 C 13,3 C 0,0 km/h (0 Bft) 0,00 %
28.09.2014 22:45 12,8 C 83 % 1023,5 hPa 0,0 l/m 0,0 km/h (0 Bft) O-SO 110 0 min 0,000 mm 0,0 UV-I 0 W/m 10,0 C 12,8 C 0,0 km/h (0 Bft) 0,00 %
28.09.2014 23:00 12,5 C 84 % 1023,8 hPa 0,0 l/m 0,0 km/h (0 Bft) S 174 0 min 0,000 mm 0,0 UV-I 0 W/m 9,9 C 12,5 C 0,0 km/h (0 Bft) 0,00 %
28.09.2014 23:15 12,1 C 84 % 1024,1 hPa 0,0 l/m 0,0 km/h (0 Bft) S 174 0 min 0,000 mm 0,0 UV-I 0 W/m 9,5 C 12,1 C 0,0 km/h (0 Bft) 0,00 %
28.09.2014 23:30 11,5 C 86 % 1024,0 hPa 0,0 l/m 0,0 km/h (0 Bft) S 174 0 min 0,000 mm 0,0 UV-I 0 W/m 9,2 C 11,5 C 0,0 km/h (0 Bft) 0,00 %
28.09.2014 23:45 11,0 C 86 % 1024,3 hPa 0,0 l/m 0,0 km/h (0 Bft) S 174 0 min 0,000 mm 0,0 UV-I 0 W/m 8,7 C 11,0 C 0,0 km/h (0 Bft) 0,00 %
_ Min-Zeit 08:00 16:45 16:30 - 00:00 - - - - - - 07:15 08:00 00:00 00:00
Minimum _ 8,3 C 54 % 1021,7 hPa - 0,0 km/h (0 Bft) - - - - - - 7,0 C 8,3 C 0,0 km/h (0 Bft) 0,00 %
_ Max-Zeit 16:45 07:00 01:45 00:00 18:15 - - 10:00 00:00 10:15 13:00 17:45 16:45 11:15 00:00
Maximum _ 19,9 C 92 % 1028,4 hPa 0,0 l/m 8,3 km/h
O (2 Bft)
- - 15 min 0,000 mm 4,0 UV-I 551 W/m 11,5 C 19,9 C 11,9 km/h
O (2 Bft)
0,00 %
Durchschnitt _ 13,1 C 79 % 1025,2 hPa #0,0 l/m 1,7 km/h (1 Bft) O - #7:00 h #0,000 mm 2,3 UV-I 319 W/m 9,3 C 13,1 C 3,3 km/h (1 Bft) 0,00 %